Date String (YYYY-MM-DD hh:mm:ss) UTC,Instrument flags,Ambient pressure (hPa),Sample flow (lpm),Bypass flow (lpm),Sample temperature (°C),Ambient temperature (°C),ASC tube jacket temperature (°C),LED temperature (°C),Box temperature (°C),Sample RH (%),Span deviation,Mass concentration (μg/m³),Mass concentration (μg/m³),Mass concentration (μg/m³)
DateTimeUTC,F1_M11,P_M11,Q1_M11,Q2_M11,T1_M11,T2_M11,T3_M11,T4_M11,T5_M11,U1_M11,ZSPAN_M11,X2_M11,X0_M11,X1_M11
2022-01-26 06:00:00,,0829.7,4.99,0.00,22.0,22.3,00.0,30.9,23.8,07.8,0000.0,0003.16,0004.34,0003.05
2022-01-26 06:01:00,,0829.7,5.01,0.00,22.0,22.0,00.0,30.9,23.7,07.8,0000.0,0003.13,0003.51,0003.01
2022-01-26 06:02:00,,0829.6,5.00,0.00,21.9,21.7,00.0,30.9,23.5,07.8,0000.0,0003.12,0004.15,0002.99
2022-01-26 06:03:00,,0829.6,5.00,0.00,21.9,21.4,00.0,30.9,23.4,07.8,0000.0,0003.12,0004.29,0002.97
2022-01-26 06:04:00,,0829.6,5.00,0.00,21.8,21.2,00.0,30.9,23.4,07.8,0000.0,0003.13,0004.36,0002.97
2022-01-26 06:05:00,,0829.6,4.99,0.00,21.7,21.1,00.0,30.9,23.3,07.9,0000.0,0003.14,0004.38,0002.98
2022-01-26 06:06:00,,0829.6,5.00,0.00,21.7,20.9,00.0,30.8,23.2,07.9,0000.0,0003.13,0004.36,0002.99
2022-01-26 06:07:00,,0829.6,5.00,0.00,21.7,21.1,00.0,30.8,23.2,07.9,0000.0,0003.13,0004.38,0002.99
2022-01-26 06:08:00,,0829.6,4.99,0.00,21.8,21.8,00.0,30.9,23.5,07.8,0000.0,0003.14,0004.37,0003.00
2022-01-26 06:09:00,,0829.6,5.01,0.00,21.9,22.6,00.0,30.9,23.8,07.7,0000.0,0003.14,0004.42,0003.00
2022-01-26 06:10:00,,0829.6,4.98,0.00,22.1,23.0,00.0,30.9,24.0,07.7,0000.0,0003.16,0004.46,0003.02
2022-01-26 06:11:00,,0829.5,5.00,0.00,22.1,22.7,00.0,31.0,24.0,07.6,0000.0,0003.16,0004.43,0003.02
2022-01-26 06:12:00,,0829.5,5.00,0.00,22.1,22.4,00.0,31.0,23.9,07.6,0000.0,0003.17,0004.45,0003.04
2022-01-26 06:13:00,,0829.5,5.01,0.00,22.0,22.0,00.0,31.0,23.7,07.7,0000.0,0003.18,0003.97,0003.07
2022-01-26 06:14:00,,0829.5,5.00,0.00,22.0,21.6,00.0,30.9,23.6,07.7,0000.0,0003.20,0003.72,0003.11
2022-01-26 06:15:00,,0829.5,5.00,0.00,21.9,21.4,00.0,30.9,23.5,07.7,0000.0,0003.21,0003.71,0003.14
2022-01-26 06:16:00,,0829.5,4.99,0.00,21.8,21.2,00.0,30.9,23.4,07.7,0000.0,0003.23,0003.76,0003.16
2022-01-26 06:17:00,,0829.5,5.00,0.00,21.8,21.1,00.0,30.9,23.3,07.7,0000.0,0003.25,0003.82,0003.18
2022-01-26 06:18:00,,0829.5,5.01,0.00,21.7,20.9,00.0,30.9,23.2,07.8,0000.0,0003.28,0003.88,0003.21
2022-01-26 06:19:00,,0829.4,5.00,0.00,21.7,20.9,00.0,30.8,23.2,07.8,0000.0,0003.30,0003.88,0003.22
2022-01-26 06:20:00,,0829.5,4.99,0.00,21.7,21.6,00.0,30.8,23.4,07.8,0000.0,0003.31,0003.89,0003.23
2022-01-26 06:21:00,,0829.5,5.01,0.00,21.9,22.3,00.0,30.9,23.7,07.7,0000.0,0003.30,0003.84,0003.23
2022-01-26 06:22:00,,0829.5,5.01,0.00,22.0,22.9,00.0,30.9,24.0,07.7,0000.0,0003.33,0003.90,0003.26
2022-01-26 06:23:00,,0829.5,4.99,0.00,22.1,22.8,00.0,31.0,24.0,07.6,0000.0,0003.36,0003.98,0003.28
2022-01-26 06:24:00,,0829.5,5.00,0.00,22.1,22.4,00.0,31.0,23.9,07.6,0000.0,0003.36,0003.99,0003.29
2022-01-26 06:25:00,,0829.4,5.01,0.00,22.0,22.0,00.0,31.0,23.7,07.6,0000.0,0003.35,0003.96,0003.28
2022-01-26 06:26:00,,0829.4,5.01,0.00,22.0,21.7,00.0,30.9,23.6,07.6,0000.0,0003.34,0003.92,0003.28
2022-01-26 06:27:00,,0829.3,5.00,0.00,21.9,21.5,00.0,30.9,23.5,07.6,0000.0,0003.33,0003.87,0003.28
2022-01-26 06:28:00,,0829.2,5.01,0.00,21.8,21.3,00.0,30.9,23.4,07.6,0000.0,0003.33,0003.87,0003.28
2022-01-26 06:29:00,,0829.5,5.00,0.00,21.8,21.1,00.0,30.9,23.3,07.7,0000.0,0003.36,0004.12,0003.28
2022-01-26 06:30:00,,0829.3,5.01,0.00,21.7,21.0,00.0,30.9,23.2,07.7,0000.0,0003.38,0004.61,0003.30
2022-01-26 06:31:00,,0829.7,5.00,0.00,21.6,20.9,00.0,30.8,23.1,07.8,0000.0,0003.40,0004.65,0003.32
2022-01-26 06:32:00,,0829.2,5.01,0.00,21.7,21.4,00.0,30.8,23.3,07.8,0000.0,0003.41,0004.69,0003.33
2022-01-26 06:33:00,,0829.2,5.00,0.00,21.8,22.1,00.0,30.9,23.6,07.7,0000.0,0003.43,0004.74,0003.34
2022-01-26 06:34:00,,0829.2,4.99,0.00,22.0,22.8,00.0,30.9,23.9,07.6,0000.0,0003.43,0004.74,0003.34
2022-01-26 06:35:00,,0829.2,5.00,0.00,22.1,22.9,00.0,30.9,24.0,07.6,0000.0,0003.44,0004.79,0003.35
2022-01-26 06:36:00,,0829.2,5.00,0.00,22.1,22.5,00.0,30.9,23.9,07.6,0000.0,0003.46,0004.83,0003.36
2022-01-26 06:37:00,,0829.2,4.99,0.00,22.0,22.1,00.0,30.9,23.7,07.6,0000.0,0003.49,0004.92,0003.38
2022-01-26 06:38:00,,0829.2,5.01,0.00,21.9,21.8,00.0,30.9,23.6,07.6,0000.0,0003.51,0004.98,0003.40
2022-01-26 06:39:00,,0829.2,4.99,0.00,21.9,21.5,00.0,30.9,23.4,07.6,0000.0,0003.53,0005.02,0003.41
2022-01-26 06:40:00,,0829.1,5.00,0.00,21.8,21.3,00.0,30.9,23.3,07.6,0000.0,0003.52,0004.90,0003.41
2022-01-26 06:41:00,,0829.1,5.00,0.00,21.7,21.1,00.0,30.9,23.3,07.7,0000.0,0003.51,0004.40,0003.42
2022-01-26 06:42:00,,0829.1,5.01,0.00,21.7,21.0,00.0,30.8,23.2,07.7,0000.0,0003.52,0004.43,0003.42
2022-01-26 06:43:00,,0829.1,4.98,0.00,21.6,20.8,00.0,30.8,23.1,07.7,0000.0,0003.53,0004.47,0003.42
2022-01-26 06:44:00,,0829.1,5.01,0.00,21.6,21.1,00.0,30.8,23.2,07.7,0000.0,0003.54,0004.47,0003.43
2022-01-26 06:45:00,,0829.1,5.00,0.00,21.7,21.9,00.0,30.8,23.5,07.7,0000.0,0003.54,0004.47,0003.44
2022-01-26 06:46:00,,0829.1,5.01,0.00,21.9,22.6,00.0,30.9,23.8,07.6,0000.0,0003.55,0004.50,0003.45
2022-01-26 06:47:00,,0829.0,5.01,0.00,22.0,22.9,00.0,30.9,23.9,07.6,0000.0,0003.54,0004.47,0003.45
2022-01-26 06:48:00,,0829.0,4.98,0.00,22.0,22.6,00.0,30.9,23.9,07.6,0000.0,0003.54,0004.45,0003.45
2022-01-26 06:49:00,,0828.9,5.02,0.00,22.0,22.2,00.0,30.9,23.8,07.6,0000.0,0003.55,0004.53,0003.45
2022-01-26 06:50:00,,0828.9,4.98,0.00,22.0,21.9,00.0,30.9,23.6,07.7,0000.0,0003.56,0004.57,0003.46
2022-01-26 06:51:00,,0828.8,5.00,0.00,21.9,21.6,00.0,30.9,23.5,07.7,0000.0,0003.57,0004.60,0003.48
2022-01-26 06:52:00,,0828.8,5.00,0.00,21.8,21.4,00.0,30.9,23.4,07.8,0000.0,0003.57,0004.54,0003.48
2022-01-26 06:53:00,,0828.7,5.00,0.00,21.8,21.1,00.0,30.9,23.3,07.8,0000.0,0003.55,0004.49,0003.47
2022-01-26 06:54:00,,0828.8,4.99,0.00,21.7,20.8,00.0,30.8,23.2,07.9,0000.0,0003.55,0004.45,0003.48
2022-01-26 06:55:00,,0829.1,5.00,0.00,21.6,20.7,00.0,30.8,23.1,07.9,0000.0,0003.54,0004.40,0003.47
2022-01-26 06:56:00,,0829.0,5.00,0.00,21.7,21.3,00.0,30.8,23.3,07.8,0000.0,0003.54,0004.41,0003.47
2022-01-26 06:57:00,,0829.0,5.01,0.00,21.8,22.0,00.0,30.9,23.6,07.7,0000.0,0003.54,0004.37,0003.47
2022-01-26 06:58:00,,0828.9,5.01,0.00,22.0,22.8,00.0,30.9,23.9,07.6,0000.0,0003.55,0004.44,0003.48
2022-01-26 06:59:00,,0829.2,4.99,0.00,22.1,22.8,00.0,30.9,24.0,07.6,0000.0,0003.55,0004.44,0003.47
